Showing default

AEROCUBE 5C, 40965

Orbit data source: Space-Track

AEROCUBE 5C, 40965 is a payload satellite owned by AERO (US) in LEO that was launched on Thu, 08 Oct 2015 UTC via an ATLAS V 401 launch vehicle from the Air Force Western Test Range (AFWTR). Payload-class satellites include a variety of spacecraft equipped with specific instruments for various scientific and technological missions. These include communications satellites like Starlink; space stations such as the ISS; scientific satellites like the Hubble; Earth observation satellites from companies like Planet Labs, Umbra, and HawkEye 360; GPS; miniature CubeSats for education and research; and military/defense satellites.

Loading next visibility...
Identifier
40965, 2015-058B
Orbit
LEO
Country
Flag of USUS
Related business
Manufacturer
AERO
Mission
Operational Defense Technology
Bus & Motor
CUBESAT 1.5U, Unknown motor
Mass
2 kg wet, 2 kg dry
Launch date (UTC)
2015-10-08 (10 years ago)
Launch vehicle
ATLAS V 401
Launch site
Air Force Western Test Range (AFWTR)
Object type
Payload
Rocket body
Debris
Shape & HBR
Box, 0.1 m
Radar Cross Section
0.025 m²

Expand to show TLE details & history
Last TLE update: 16 hours ago

TLE from 16 hours ago
0 AEROCUBE 5C
1 40965U 15058B   26067.83993481  .00005574  00000-0  49396-3 0  9994
2 40965  64.7674 214.6196 0130724 102.8385 258.7370 14.90848791350699
Epoch: 2026-03-08T20:09Z
TLE epoch observation values (Epoch: 2026-03-08T20:09:30.367Z)
Latitude
0.00004°
Longitude
105.70163°
Altitude
616.243 km
Speed
7.541 km/s
True Right ascension
14h 18m 28s
True Declination
0° 00' 00"
Sunlit
Object was in full shadow at epoch
Visualization orbit readout
Latitude
Unknown
Longitude
Unknown
Altitude
Unknown
Speed
Unknown
Apparent Right ascension
Unknown
Apparent Declination
Unknown
Sunlit
N/A
Visualization observer readout
Local Sidereal Time
15:58:51
Azimuth
Unknown
Elevation
Unknown
Doppler factor
Unknown
Orbital elements
Apogee altitude
684.996 km
Perigee altitude
502.715 km
Semi-major axis
6,971.992 km
Eccentricity
0.01307
Inclination
64.7674°
RAAN
214.6196°
Arg. of periapsis
102.8385°
True anomaly
257.2727°
Mean anomaly
258.737°
Eccentric anomaly
258.00436°
Mean motion
3.72827 °/min
Orbital period
96.56 mins
BSTAR
0.00049396
Loading maneuver chart data...
Computing Atmospheric mass density...
Loading historical data...
Loading historical data...
Loading historical data...
Loading historical data...
Loading historical data...
Loading historical data...
Loading historical data...

Documentation

Showing up to 5 results
|